This demonstration page uses our WeatherBlox Daily Observations layout. Learn more.

Hourly Observations for November 22, 2018

Temp ( °F °C ) Dew Point ( °F °C ) Humidity (%) Winds ( mph kmh ) Pressure ( in mb ) Visibility ( mi km ) Precip ( " mm )
12:15 am 00:15 Clear 39 3.8 27 -2.7 63 63 SW 6 9 30.15 1021 10 16.09344 0 0
12:35 am 00:35 Clear 39 4 27 -2.7 62 62 SW 7 11 30.15 1021 10 16.09344 0 0
12:55 am 00:55 Clear 38 3.6 27 -2.7 64 64 SW 7 11 30.15 1021 10 16.09344 0 0
1:15 am 01:15 Clear 37 2.9 27 -2.7 67 67 SW 7 11 30.18 1022 10 16.09344 0 0
1:35 am 01:35 Clear 39 3.8 27 -2.7 63 63 SW 7 11 30.15 1021 10 16.09344 0 0
1:55 am 01:55 Clear 38 3.2 27 -2.7 66 66 SW 6 9 30.18 1022 10 16.09344 0 0
2:15 am 02:15 Clear 37 2.9 27 -2.9 66 66 SW 6 9 30.18 1022 10 16.09344 0 0
2:35 am 02:35 Clear 39 3.8 27 -2.7 63 63 SW 7 11 30.15 1021 10 16.09344 0 0
2:55 am 02:55 Clear 37 2.9 26 -3.1 65 65 SW 6 9 30.15 1021 10 16.09344 0 0
3:15 am 03:15 Clear 36 2.3 26 -3.2 67 67 WSW 5 7 30.15 1021 10 16.09344 0 0
3:35 am 03:35 Clear 39 3.8 27 -3 62 62 WSW 5 7 30.12 1020 10 16.09344 0 0
3:55 am 03:55 Clear 39 3.8 27 -2.8 62 62 WSW 6 9 30.12 1020 10 16.09344 0 0
4:15 am 04:15 Clear 39 3.9 27 -2.9 62 62 WSW 5 7 30.12 1020 10 16.09344 0 0
4:35 am 04:35 Clear 37 2.5 26 -3.4 65 65 S 3 6 30.15 1021 10 16.09344 0 0
4:55 am 04:55 Clear 34 1.3 26 -3.5 71 71 SSW 6 9 30.15 1021 10 16.09344 0 0
5:15 am 05:15 Clear 33 0.7 25 -3.7 73 73 SW 7 11 30.15 1021 10 16.09344 0 0
5:35 am 05:35 Clear 32 0.2 25 -3.8 75 75 SSW 3 6 30.15 1021 10 16.09344 0 0
5:55 am 05:55 Clear 32 -0.1 25 -4 75 75 SSW 5 7 30.18 1022 10 16.09344 0 0
6:15 am 06:15 Clear 31 -0.3 25 -3.9 77 77 SW 5 7 30.18 1022 10 16.09344 0 0
6:35 am 06:35 Clear 32 0 25 -3.7 76 76 SW 6 9 30.18 1022 10 16.09344 0 0
6:55 am 06:55 Clear 32 -0.1 25 -3.8 76 76 SW 6 9 30.18 1022 10 16.09344 0 0
7:15 am 07:15 Clear 32 0 26 -3.5 78 78 SW 3 6 30.18 1022 10 16.09344 0 0
7:35 am 07:35 Sunny 32 0.1 26 -3.5 77 77 SSW 5 7 30.18 1022 10 16.09344 0 0
7:55 am 07:55 Sunny 33 0.3 26 -3.5 76 76 SSW 5 7 30.15 1021 10 16.09344 0 0
8:15 am 08:15 Sunny 34 1 26 -3.3 73 73 SSW 6 9 30.12 1020 10 16.09344 0 0
8:35 am 08:35 Sunny 34 1.3 28 -2.5 76 76 S 3 6 30.12 1020 10 16.09344 0 0
8:55 am 08:55 Sunny 37 3 29 -1.8 71 71 SSW 3 6 30.09 1019 10 16.09344 0 0
9:15 am 09:15 Sunny 40 4.4 30 -0.9 69 69 SSW 5 7 30.09 1019 10 16.09344 0 0
9:35 am 09:35 Sunny 43 6.1 31 -0.4 63 63 S 7 11 30.03 1017 10 16.09344 0 0
9:55 am 09:55 Sunny 44 6.5 32 -0.2 63 63 S 9 15 30.03 1017 10 16.09344 0 0
10:15 am 10:15 Sunny 44 6.5 32 -0.1 63 63 S 8 13 30.03 1017 10 16.09344 0 0
10:35 am 10:35 Sunny 46 7.6 32 0 59 59 S 8 13 30.03 1017 10 16.09344 0 0
10:55 am 10:55 Sunny 49 9.3 33 0.4 54 54 SSW 9 15 30 1016 10 16.09344 0 0
11:15 am 11:15 Sunny 52 11 33 0.6 49 49 S 9 15 29.97 1015 10 16.09344 0 0
11:35 am 11:35 Sunny 55 12.5 35 1.4 47 47 S 14 22 29.94 1014 10 16.09344 0 0
11:55 am 11:55 Sunny 56 13.3 35 1.9 46 46 SSW 14 22 29.94 1014 10 16.09344 0 0
12:15 pm 12:15 Sunny 58 14.4 36 2.2 44 44 S 13 20 29.91 1013 10 16.09344 0 0
12:35 pm 12:35 Sunny 58 14.5 36 2 43 43 S 14 22 29.91 1013 10 16.09344 0 0
12:55 pm 12:55 Sunny 59 15.2 36 2.1 41 41 S 14 22 29.85 1011 10 16.09344 0 0
1:15 pm 13:15 Sunny 60 15.8 35 1.9 39 39 S 16 26 29.85 1011 10 16.09344 0 0
1:35 pm 13:35 Sunny 60 15.8 36 2.1 40 40 S 15 24 29.83 1010 10 16.09344 0 0
1:55 pm 13:55 Sunny 61 16.1 37 2.6 41 41 S 17 28 29.8 1009 10 16.09344 0 0
2:15 pm 14:15 Sunny 60 15.6 36 2.3 41 41 S 17 28 29.8 1009 10 16.09344 0 0
2:35 pm 14:35 Sunny 60 15.6 37 2.5 42 42 S 17 28 29.77 1008 10 16.09344 0 0
2:55 pm 14:55 Sunny 62 16.4 37 2.9 41 41 S 14 22 29.77 1008 10 16.09344 0 0
3:15 pm 15:15 Sunny 61 16 37 2.8 41 41 S 17 28 29.77 1008 10 16.09344 0 0
3:35 pm 15:35 Sunny 60 15.8 38 3.1 43 43 S 16 26 29.77 1008 10 16.09344 0 0
3:55 pm 15:55 Sunny 61 16.1 38 3.3 43 43 S 12 19 29.77 1008 10 16.09344 0 0
4:15 pm 16:15 Sunny 62 16.4 37 2.7 40 40 S 14 22 29.74 1007 10 16.09344 0 0
4:35 pm 16:35 Sunny 59 15.1 37 2.6 43 43 S 12 19 29.74 1007 10 16.09344 0 0
4:55 pm 16:55 Sunny 57 13.8 37 2.7 47 47 S 10 17 29.77 1008 10 16.09344 0 0
5:15 pm 17:15 Sunny 54 12 37 2.8 54 54 S 9 15 29.77 1008 10 16.09344 0 0
5:35 pm 17:35 Clear 53 11.5 38 3.1 57 57 SSE 10 17 29.77 1008 10 16.09344 0 0
5:55 pm 17:55 Clear 51 10.5 37 3 60 60 SSE 9 15 29.77 1008 10 16.09344 0 0
6:15 pm 18:15 Clear 47 8.1 37 2.5 68 68 SSE 7 11 29.8 1009 10 16.09344 0 0
6:35 pm 18:35 Clear 46 7.9 37 2.9 71 71 S 9 15 29.8 1009 10 16.09344 0 0
6:55 pm 18:55 Clear 51 10.5 40 4.3 66 66 S 15 24 29.74 1007 10 16.09344 0 0
7:15 pm 19:15 Clear 49 9.5 39 4.1 69 69 S 14 22 29.77 1008 10 16.09344 0 0
7:35 pm 19:35 Clear 48 9 40 4.2 72 72 S 9 15 29.77 1008 10 16.09344 0 0
7:55 pm 19:55 Clear 48 9.1 40 4.5 73 73 S 8 13 29.77 1008 10 16.09344 0 0
8:15 pm 20:15 Clear 50 10.1 41 5 71 71 SSE 13 20 29.77 1008 10 16.09344 0 0
8:35 pm 20:35 Clear 50 9.9 41 5 72 72 SSE 14 22 29.71 1006 10 16.09344 0 0
8:55 pm 20:55 Clear 49 9.5 41 5 74 74 S 15 24 29.74 1007 10 16.09344 0 0
9:15 pm 21:15 Clear 49 9.4 41 5 74 74 SSE 15 24 29.74 1007 10 16.09344 0 0
9:35 pm 21:35 Clear 48 8.7 41 4.8 77 77 SSE 13 20 29.71 1006 10 16.09344 0 0
9:55 pm 21:55 Clear 47 8.5 41 4.8 78 78 SSE 9 15 29.71 1006 10 16.09344 0 0
10:15 pm 22:15 Clear 47 8.5 40 4.7 77 77 S 13 20 29.71 1006 10 16.09344 0 0
10:35 pm 22:35 Clear 47 8.5 40 4.7 77 77 S 14 22 29.71 1006 10 16.09344 0 0
10:55 pm 22:55 Clear 47 8.2 40 4.7 79 79 S 14 22 29.71 1006 10 16.09344 0 0
11:15 pm 23:15 Clear 46 8 40 4.7 80 80 SSE 13 20 29.68 1005 10 16.09344 0 0
11:35 pm 23:35 Clear 47 8.1 41 5 81 81 SSE 14 22 29.68 1005 10 16.09344 0 0
11:55 pm 23:55 Clear 47 8.1 41 5.1 82 82 SSE 13 20 29.65 1004 10 16.09344 0 0

Powered by AerisWeather